User: anonymous   Login
Location: Melbourne
(37.8170°S, 144.9670°E)
Time: 11:14:08
(UTC+10:00)
Language:

ADEOS Rocket - Orbit

View from above orbital plane
View from above orbital plane
View from above satellite
View from above satellite

Ground track
Ground track

The orbit data is extracted from the following two-line orbital elements,

1 24279U 96046C   16241.88331433 -.00000006 +00000-0 +40352-4 0  9991
2 24279 098.7090 216.5649 0299457 314.2820 071.7895 13.47056169984626
Epoch (UTC): 28 August 2016 21:11:58
Eccentricity: 0.0299457
inclination: 98.7090°
perigee height: 859 km
apogee height: 1306 km
right ascension of ascending node: 216.5649°
argument of perigee: 314.2820°
revolutions per day: 13.47056169
mean anomaly at epoch: 71.7895°
orbit number at epoch: 98462

The dashed part of the orbit path shows where the satellite is in the earth's shadow,  

DLR